Location: Castiglione Fibocchi
(43.5333°N, 11.7667°E)
Time: 17:23:50
(UTC+00:00)

Cosmos 1553 Rocket - Pass Details

Date: 15 August 2020
Orbit: 942 x 1007 km, 82.9° (Epoch: 17 September)

Event Time Altitude Azimuth Distance (km) Brightness Sun altitude
Exits shadow 02:15:28 26° 189° (S) 1,755 4.9 -19.6°
Maximum altitude 02:19:04 86° 276° (W) 957 3.9 -19.2°
Drops below altitude 10° 02:25:14 10° 7° (N) 2,697 7.0 -18.3°
Sets 02:27:46 0° 8° (N) 3,656 7.8 -18.0°
